Regional Weather Roundup
Issued by NWS

Home | Current Version | Previous Version | Graphics & Text | Print | Product List | Glossary On
Versions: 1 2 3 4 5 6 7 8 9 10 11 12 13 14 15 16 17 18 19 20 21 22 23 24 25 26 27 28 29 30 31 32 33 34 35 36 37 38 39 40 41 42 43 44 45 46 47 48 49 50
000
ASUS43 KTOP 020759
RWRKS

WEATHER ROUNDUP FOR KANSAS
NATIONAL WEATHER SERVICE GOODLAND KS
300 AM CDT MON MAY 02 2016

NOTE:  "FAIR" INDICATES FEW OR NO CLOUDS BELOW 12,000 FEET WITH NO
SIGNIFICANT WEATHER AND/OR OBSTRUCTIONS TO VISIBILITY.

KSZ001>006-013>018-027>032-041>047-020900-
NORTHWEST KANSAS

CITY           SKY/WX    TMP DP  RH WIND       PRES   REMARKS
GOODLAND       CLEAR     31  27  85 W9        30.24F
HAYS           CLOUDY    43  34  70 NW7       30.21F
HILL CITY      CLOUDY    40  38  93 W5        30.23F
RUSSELL        LGT RAIN  45  41  86 NW9       30.19F
$$

KSZ061>065-074>080-084>089-020900-
SOUTHWEST KANSAS

CITY           SKY/WX    TMP DP  RH WIND       PRES   REMARKS
DODGE CITY     PTCLDY    37  35  92 NW8       30.22F
ELKHART          N/A     42  36  79 NW8         N/A
GARDEN CITY    CLOUDY    43  40  89 NW5       30.22F
GREAT BEND     CLOUDY    45  37  76 NW9       30.20F
LIBERAL        PTCLDY    39  36  87 NW8       30.24F
$$

KSZ066>073-081>083-090>101-020900-
SOUTHEAST KANSAS

CITY           SKY/WX    TMP DP  RH WIND       PRES   REMARKS
CHANUTE        CLOUDY    51  44  77 N7        30.12F
COFFEYVILLE    CLOUDY    53  46  77 N7        30.13F
HUTCHINSON     CLOUDY    47  42  83 NW6       30.17F
MEDICINE LODGE   N/A     46  42  86 NW6       30.18F
NEWTON         CLOUDY    45  37  76 N7        30.18F
PARSONS        CLOUDY    52  45  77 N10       30.13F
WICHITA INTL   CLOUDY    48  42  80 NW9       30.16F
WICHITA JABRA  CLOUDY    47  42  83 NW9       30.15F
WINFIELD       CLOUDY    49  43  80 N9        30.15F
$$

KSZ007>012-019>026-033>040-048>060-102>105-020900-
NORTHEAST KANSAS

CITY           SKY/WX    TMP DP  RH WIND       PRES   REMARKS
CONCORDIA      CLOUDY    46  43  89 W6        30.18F
EMPORIA        CLOUDY    47  43  86 N8        30.14F
LAWRENCE       CLOUDY    48  44  86 W7        30.14F
MANHATTAN      CLOUDY    49  42  77 CALM      30.16F
OLATHE IND     CLOUDY    48  44  86 NW9       30.13F
OLATHE EXE     CLOUDY    48  43  82 N9        30.12F
SALINA         CLOUDY    48  44  86 NW9       30.18F
TOPEKA BILLARD CLOUDY    49  43  80 NW5       30.15F
TOPEKA FORBES  CLOUDY    49  43  80 NW6       30.14F
$$




USA.gov is the U.S. government's official web portal to all federal, state and local government web resources and services.